Weather History for KVNY - April, 2013

Change the Weather History Date:

Thursday, April 25, 2013

  Actual Average Record
Temperature  
Mean Temperature 65 °F -  
Max Temperature 73 °F 73 °F 93 °F (2004)
Min Temperature 57 °F 50 °F 46 °F (1999)
Growing Degree Days 15 (Base 50)    
Moisture  
Dew Point 44 °F    
Average Humidity 53    
Maximum Humidity 69    
Minimum Humidity 33    
Precipitation  
Precipitation 0.00 in - - ()
Sea Level Pressure  
Sea Level Pressure 30.01 in    
Wind  
Wind Speed 2 mph (SW)    
Max Wind Speed 8 mph    
Max Gust Speed 16 mph    
Visibility 10 miles    
Events      
Averages and records for this station are not official NWS values.
T = Trace of Precipitation, MM = Missing Value Source: NWS Daily Summary

Daily Weather History Graph

Daily Weather History Graph

Search for Another Location

Airport or City:

Trip Planner

Search our weather history database for the weather conditions in past years. The results will help you decide how hot, cold, wet, or windy it might be!

Date:

Astronomy

Apr. 25, 2013 Rise Set
Actual Time 6:10 AM PDT 7:33 PM PDT
Civil Twilight 5:44 AM PDT 8:00 PM PDT
Nautical Twilight 5:12 AM PDT 8:31 PM PDT
Astronomical Twilight 4:39 AM PDT 9:04 PM PDT
Moon 7:50 PM PDT (4/25) 5:56 AM PDT (4/25)
Length of Visible Light 14h 15m
Length of Day
13h 23m
Full, 100% of the Moon is Illuminated
Apr 25
Full
Apr 25
Full
May 2
Last Quarter
May 9
New
May 17
First Quarter

Hourly Weather History & Observations

Time (PDT) Temp. Dew Point Humidity Pressure Visibility Wind Dir Wind Speed Gust Speed Precip Events Conditions
12:51 AM 59.0 °F 45.0 °F 60% 29.96 in 10.0 mi Calm Calm - N/A   Overcast
1:17 AM 57.2 °F 44.6 °F 63% 29.97 in 10.0 mi Calm Calm - N/A   Overcast
1:26 AM 57.2 °F 44.6 °F 63% 29.97 in 10.0 mi SW 3.5 mph - N/A   Overcast
1:51 AM 57.9 °F 46.0 °F 65% 29.96 in 10.0 mi South 5.8 mph - N/A   Overcast
2:51 AM 57.9 °F 45.0 °F 62% 29.94 in 10.0 mi Calm Calm - N/A   Overcast
3:51 AM 57.9 °F 45.0 °F 62% 29.95 in 10.0 mi Calm Calm - N/A   Overcast
4:51 AM 57.0 °F 46.9 °F 69% 29.97 in 10.0 mi South 4.6 mph - N/A   Overcast
5:51 AM 57.9 °F 45.0 °F 62% 29.98 in 10.0 mi West 3.5 mph - N/A   Overcast
6:03 AM 57.2 °F 44.6 °F 63% 29.99 in 10.0 mi Calm Calm - N/A   Overcast
6:17 AM 57.2 °F 44.6 °F 63% 30.00 in 10.0 mi Calm Calm - N/A   Overcast
6:51 AM 57.9 °F 45.0 °F 62% 30.00 in 10.0 mi Calm Calm - N/A   Mostly Cloudy
7:51 AM 57.9 °F 46.0 °F 65% 30.02 in 10.0 mi Calm Calm - N/A   Mostly Cloudy
8:51 AM 61.0 °F 45.0 °F 56% 30.03 in 10.0 mi Calm Calm - N/A   Scattered Clouds
9:51 AM 64.9 °F 43.0 °F 45% 30.05 in 10.0 mi ESE 3.5 mph - N/A   Clear
10:51 AM 66.0 °F 44.1 °F 45% 30.05 in 10.0 mi Calm Calm - N/A   Partly Cloudy
11:51 AM 68.0 °F 44.1 °F 42% 30.04 in 10.0 mi Variable 3.5 mph - N/A   Mostly Cloudy
1:51 PM 71.1 °F 43.0 °F 36% 30.02 in 10.0 mi SSE 8.1 mph 16.1 mph N/A   Clear
2:51 PM 71.1 °F 43.0 °F 36% 30.02 in 10.0 mi Variable 4.6 mph - N/A   Clear
3:51 PM 73.0 °F 42.1 °F 33% 30.01 in 10.0 mi SSE 8.1 mph - N/A   Clear
4:51 PM 72.0 °F 43.0 °F 35% 30.00 in 10.0 mi West 5.8 mph - N/A   Clear
5:51 PM 70.0 °F 44.1 °F 39% 30.00 in 10.0 mi WSW 5.8 mph - N/A   Clear
6:51 PM 68.0 °F 43.0 °F 40% 30.01 in 10.0 mi West 5.8 mph - N/A   Clear
7:51 PM 64.9 °F 45.0 °F 48% 30.03 in 10.0 mi West 5.8 mph - N/A   Clear
8:51 PM 62.1 °F 45.0 °F 53% 30.06 in 10.0 mi West 4.6 mph - N/A   Clear
9:51 PM 61.0 °F 43.0 °F 52% 30.08 in 10.0 mi Variable 3.5 mph - N/A   Clear
10:51 PM 60.1 °F 44.1 °F 55% 30.09 in 10.0 mi Calm Calm - N/A   Clear
11:51 PM 59.0 °F 45.0 °F 60% 30.10 in 10.0 mi Calm Calm - N/A   Clear